ABS-4 (MOBISAT-1)

Last updated on Sat Apr 13 2024 01:02:36 GMT+0100 (British Summer Time)

1 28184U 04007A 24103.53290666 .00000033 00000+0 00000+0 0 9995 2 28184 4.0148 81.5668 0005308 301.6034 70.8562 1.00270153 44363
UTC large
Height (km)
Speed (km/s)
/
Latitude / Longitude
Inclination (degrees)
Orbital Period (minutes)
Azimuth
Elevation
Range (km)
Doppler Factor

Next 0 passes for location: London (51.5072 / 0.1276)

Sorry there are no passes over London.